Home   Weather   Frankenthal (Pfalz)   Past weeks

Flag for Germany Past Weather in Frankenthal (Pfalz), Rhineland-Palatinate, Germany — Yesterday and Last 2 Weeks

Now
66 °F

Light rain. Broken clouds.


Feels Like: 66 °F
Forecast: 60 / 72 °F
Wind: 13 mph from Southwest

Location: Mannheim City

Current Time: Jul 27, 2017 at 10:55:47 pm

Latest Report: Jul 27, 2017 at 8:20 pm


Visibility: 6 mi

Pressure: 29.80 "Hg

Humidity: 100%

Dew Point: 66 °F

Location of Frankenthal (Pfalz)Location

Past Weather in Frankenthal (Pfalz) — Graph

°F

Frankenthal (Pfalz) Temperature Yesterday

Maximum temperature yesterday: 72 °F (at 5:50 pm)
Minimum temperature yesterday: 59 °F (at 6:20 am)
Average temperature yesterday: 66 °F

High & Low Weather Summary for the Past Weeks

 TemperatureHumidityPressure
High93 °F (Jul 19, 3:20 pm)100% (Jul 13, 5:50 am)30.27 "Hg (Jul 13, 5:50 am)
Low50 °F (Jul 13, 5:50 am)28% (Jul 19, 5:50 pm)29.71 "Hg (Jul 24, 9:50 am)
Average71 °F62%29.97 "Hg
* Reported Jul 12 8:20 pm — Jul 27 8:20 pm, Frankenthal (Pfalz). Weather by CustomWeather, © 2017

Note: Actual official high and low records may vary slightly from our data, if they occured in-between our weather recording intervals... More about our weather records

Advertising

Frankenthal (Pfalz) Weather History for the Previous 24 Hours

Scroll right to see more
 ConditionsComfort  
Time TempWeatherWind HumidityBarometerVisibility
8:20 pm
Thu, Jul 27
66 °FLight rain. Broken clouds.13 mph100%29.80 "Hg6 mi
7:50 pm72 °FPassing clouds.8 mph69%29.77 "HgN/A
7:20 pm72 °FPassing clouds.6 mph73%29.77 "HgN/A
6:50 pm72 °FPassing clouds.8 mph69%29.77 "HgN/A
6:20 pm72 °FPassing clouds.8 mph69%29.80 "HgN/A
5:50 pm73 °FPassing clouds.9 mph65%29.80 "HgN/A
5:20 pm73 °FPassing clouds.9 mph61%29.80 "HgN/A
4:50 pm73 °FScattered clouds.13 mph61%29.80 "HgN/A
4:20 pm73 °FPassing clouds.12 mph65%29.80 "HgN/A
3:50 pm75 °FPartly sunny.12 mph61%29.80 "HgN/A
3:20 pm73 °FBroken clouds.9 mph65%29.80 "HgN/A
2:50 pm73 °FPartly sunny.9 mph69%29.80 "HgN/A
2:20 pm72 °FPartly sunny.9 mph69%29.83 "HgN/A
1:50 pm72 °FMostly cloudy.5 mph69%29.83 "HgN/A
1:20 pm70 °FMostly cloudy.7 mph73%29.83 "HgN/A
12:50 pm70 °FBroken clouds.8 mph73%29.83 "HgN/A
12:20 pm68 °FBroken clouds.7 mph88%29.83 "HgN/A
11:50 am68 °FBroken clouds.8 mph94%29.83 "HgN/A
11:20 am68 °FBroken clouds.8 mph94%29.83 "HgN/A
10:50 am66 °FPartly sunny.8 mph100%29.83 "HgN/A
10:20 am64 °FBroken clouds.7 mph100%29.83 "HgN/A
9:20 am63 °FLight rain. Fog.8 mph100%29.86 "Hg2 mi
8:50 am63 °FDrizzle. Partly sunny.8 mph100%29.83 "Hg4 mi
8:20 am61 °FDrizzle. Partly sunny.8 mph100%29.83 "Hg4 mi
7:50 am61 °FRain. Fog.8 mph100%29.83 "Hg2 mi
7:20 am61 °FLight rain. Fog.8 mph100%29.83 "Hg2 mi
6:50 am61 °FLight rain. Fog.3 mph100%29.83 "Hg2 mi
6:20 am59 °FLight rain. Fog.6 mph100%29.83 "Hg2 mi
5:50 am59 °FPartly sunny.6 mph100%29.83 "HgN/A
5:20 am59 °FLight rain. Passing clouds.6 mph100%29.83 "HgN/A
Weather by CustomWeather, © 2017

See weather overviewHow to use our weather pages